When you browse on this site, cookies collect data to enhance your experience and personalize the content and advertising you see.
Visit our Privacy Policy to learn more. By continuing to use the site, you agree to this use of cookies and data.
  • In Lithuania
  • List of Countries
  • For 7 days
  • Water Temperature
  • Weather Map
  • Weather Widgets
  • user-avatar
    Login

    Hourly Weather Truto

    Today, 25 February, Tuesday

    Time Temperature Precipitation Wind Pressure Humidity
    00:00 +6°C° 0 mm 9 mps 755 mmHg 73%
    01:00 +6°C° 0.1 mm 9 mps 754 mmHg 73%
    02:00 +6°C° 0.1 mm 10 mps 753 mmHg 73%
    03:00 +5°C° 0.1 mm 10 mps 753 mmHg 73%
    04:00 +5°C° 0.1 mm 10 mps 753 mmHg 75%
    05:00 +5°C° 0.1 mm 10 mps 752 mmHg 77%
    06:00 +4°C° 0 mm 11 mps 752 mmHg 81%
    07:00 +4°C° 0.3 mm 11 mps 752 mmHg 79%
    08:00 +4°C° 0.3 mm 11 mps 751 mmHg 77%
    09:00 +4°C° 0.3 mm 12 mps 751 mmHg 74%
    10:00 +4°C° 0.2 mm 12 mps 751 mmHg 74%
    11:00 +5°C° 0.2 mm 13 mps 750 mmHg 73%
    12:00 +5°C° 0.2 mm 13 mps 750 mmHg 72%
    13:00 +4°C° 0.5 mm 14 mps 750 mmHg 70%
    14:00 +4°C° 0.5 mm 15 mps 749 mmHg 67%
    15:00 +2°C° 0.5 mm 15 mps 749 mmHg 65%
    16:00 +2°C° 0.3 mm 15 mps 749 mmHg 66%
    17:00 +1°C° 0.3 mm 15 mps 749 mmHg 67%
    18:00 +1°C° 0.3 mm 14 mps 750 mmHg 68%
    19:00 +1°C° 0.4 mm 14 mps 750 mmHg 68%
    20:00 +1°C° 0.4 mm 14 mps 750 mmHg 68%
    21:00 0°C° 0.4 mm 14 mps 750 mmHg 68%
    22:00 0°C° 0.3 mm 14 mps 751 mmHg 68%
    23:00 0°C° 0.3 mm 15 mps 751 mmHg 67%

    Tomorrow, 26 February, Wednesday

    Time Temperature Precipitation Wind Pressure Humidity
    00:00 0°C° 0.3 mm 15 mps 751 mmHg 67%
    01:00 0°C° 0.2 mm 15 mps 752 mmHg 67%
    02:00 0°C° 0.2 mm 14 mps 752 mmHg 67%
    03:00 0°C° 0.2 mm 14 mps 752 mmHg 66%
    04:00 0°C° 0.1 mm 13 mps 753 mmHg 67%
    05:00 0°C° 0.1 mm 13 mps 753 mmHg 67%
    06:00 0°C° 0.1 mm 12 mps 754 mmHg 67%
    07:00 +2°C° 0 mm 11 mps 754 mmHg 67%
    08:00 +2°C° 0 mm 11 mps 755 mmHg 67%
    09:00 +2°C° 0 mm 10 mps 756 mmHg 67%
    10:00 +3°C° 0.1 mm 10 mps 756 mmHg 66%
    11:00 +3°C° 0.1 mm 9 mps 757 mmHg 64%
    12:00 +5°C° 0.1 mm 9 mps 757 mmHg 63%
    13:00 +5°C° 0.1 mm 9 mps 757 mmHg 64%
    14:00 +5°C° 0.1 mm 8 mps 757 mmHg 65%
    15:00 +5°C° 0.1 mm 8 mps 756 mmHg 67%
    16:00 +4°C° 0.1 mm 7 mps 756 mmHg 70%
    17:00 +4°C° 0.1 mm 7 mps 755 mmHg 73%
    18:00 +3°C° 0.1 mm 6 mps 755 mmHg 76%
    19:00 +3°C° 0.1 mm 7 mps 754 mmHg 77%
    20:00 +3°C° 0.1 mm 7 mps 754 mmHg 78%
    21:00 +3°C° 0.1 mm 7 mps 753 mmHg 79%
    22:00 +3°C° 0.8 mm 7 mps 751 mmHg 84%
    23:00 +4°C° 0.8 mm 8 mps 749 mmHg 89%

    Day after tomorrow, 27 February, Thursday

    Time Temperature Precipitation Wind Pressure Humidity
    00:00 +3°C° 0.8 mm 9 mps 747 mmHg 94%
    01:00 +5°C° 2.1 mm 10 mps 745 mmHg 94%
    02:00 +7°C° 2.1 mm 11 mps 743 mmHg 94%
    03:00 +8°C° 2.1 mm 12 mps 741 mmHg 94%
    04:00 +8°C° 0.4 mm 13 mps 740 mmHg 92%
    05:00 +8°C° 0.4 mm 13 mps 740 mmHg 90%
    06:00 +8°C° 0.4 mm 14 mps 739 mmHg 88%
    07:00 +6°C° 0.1 mm 14 mps 740 mmHg 87%
    08:00 +5°C° 0.1 mm 14 mps 742 mmHg 86%
    09:00 +4°C° 0.1 mm 14 mps 744 mmHg 84%
    10:00 +4°C° 0.1 mm 13 mps 746 mmHg 82%
    11:00 +3°C° 0.1 mm 13 mps 748 mmHg 80%
    12:00 +3°C° 0.1 mm 13 mps 750 mmHg 77%
    13:00 +3°C° 0 mm 12 mps 751 mmHg 72%
    14:00 +3°C° 0 mm 11 mps 752 mmHg 68%
    15:00 +4°C° 0 mm 11 mps 753 mmHg 63%
    16:00 +3°C° 0 mm 10 mps 754 mmHg 64%
    17:00 +4°C° 0 mm 8 mps 755 mmHg 64%
    18:00 +4°C° 0 mm 7 mps 756 mmHg 65%
    19:00 +3°C° 0 mm 7 mps 756 mmHg 66%
    20:00 +3°C° 0 mm 6 mps 757 mmHg 67%
    21:00 +3°C° 0 mm 6 mps 757 mmHg 68%
    22:00 +3°C° 0 mm 5 mps 757 mmHg 69%
    23:00 +4°C° 0 mm 4 mps 758 mmHg 70%

    28 February, Friday

    Time Temperature Precipitation Wind Pressure Humidity
    00:00 +4°C° 0 mm 3 mps 758 mmHg 70%
    01:00 +4°C° 0 mm 3 mps 757 mmHg 71%
    02:00 +4°C° 0 mm 4 mps 757 mmHg 72%
    03:00 +4°C° 0 mm 4 mps 757 mmHg 72%
    04:00 +3°C° 0.2 mm 5 mps 756 mmHg 77%
    05:00 +3°C° 0.2 mm 6 mps 755 mmHg 82%
    06:00 +4°C° 0.2 mm 7 mps 754 mmHg 87%
    07:00 +3°C° 1.3 mm 9 mps 753 mmHg 89%
    08:00 +3°C° 1.3 mm 10 mps 752 mmHg 91%
    09:00 +4°C° 1.3 mm 12 mps 751 mmHg 93%
    10:00 +6°C° 0.6 mm 11 mps 751 mmHg 94%
    11:00 +7°C° 0.6 mm 10 mps 750 mmHg 94%
    12:00 +10°C° 0.6 mm 9 mps 750 mmHg 94%
    13:00 +10°C° 0.1 mm 9 mps 749 mmHg 94%
    14:00 +10°C° 0.1 mm 9 mps 749 mmHg 93%
    15:00 +10°C° 0.1 mm 9 mps 748 mmHg 93%
    16:00 +10°C° 0.1 mm 9 mps 747 mmHg 93%
    17:00 +9°C° 0.1 mm 10 mps 747 mmHg 93%
    18:00 +9°C° 0.1 mm 10 mps 746 mmHg 94%
    19:00 +9°C° 0 mm 11 mps 745 mmHg 91%
    20:00 +9°C° 0 mm 11 mps 745 mmHg 89%
    21:00 +9°C° 0 mm 11 mps 744 mmHg 87%
    22:00 +9°C° 0.1 mm 12 mps 742 mmHg 87%
    23:00 +8°C° 0.1 mm 13 mps 741 mmHg 88%

    29 February, Saturday

    Time Temperature Precipitation Wind Pressure Humidity
    00:00 +8°C° 0.1 mm 14 mps 739 mmHg 88%
    01:00 +8°C° 1.9 mm 15 mps 738 mmHg 90%
    02:00 +9°C° 1.9 mm 15 mps 736 mmHg 91%
    03:00 +9°C° 1.9 mm 16 mps 734 mmHg 93%
    04:00 +8°C° 0.6 mm 14 mps 734 mmHg 90%
    05:00 +7°C° 0.6 mm 13 mps 735 mmHg 88%
    06:00 +6°C° 0.6 mm 11 mps 735 mmHg 85%
    07:00 +4°C° 0.7 mm 12 mps 736 mmHg 86%
    08:00 +3°C° 0.7 mm 13 mps 737 mmHg 86%
    09:00 +1°C° 0.7 mm 13 mps 738 mmHg 86%
    10:00 +1°C° 0.3 mm 13 mps 739 mmHg 80%
    11:00 +3°C° 0.3 mm 13 mps 740 mmHg 73%
    12:00 +3°C° 0.3 mm 13 mps 741 mmHg 67%
    13:00 +3°C° 0.3 mm 14 mps 741 mmHg 67%
    14:00 +2°C° 0.3 mm 15 mps 742 mmHg 68%
    15:00 +2°C° 0.3 mm 16 mps 742 mmHg 69%
    16:00 +2°C° 0.3 mm 15 mps 743 mmHg 69%
    17:00 +3°C° 0.3 mm 14 mps 743 mmHg 69%
    18:00 +1°C° 0.3 mm 13 mps 744 mmHg 69%
    19:00 +1°C° 0.3 mm 13 mps 745 mmHg 71%
    20:00 +1°C° 0.3 mm 13 mps 745 mmHg 72%
    21:00 +1°C° 0.3 mm 13 mps 745 mmHg 74%
    22:00 +2°C° 0.2 mm 12 mps 745 mmHg 75%
    23:00 +3°C° 0.2 mm 12 mps 745 mmHg 77%

    1 March, Sunday

    Time Temperature Precipitation Wind Pressure Humidity
    00:00 +3°C° 0.2 mm 12 mps 745 mmHg 78%
    01:00 +3°C° 0.3 mm 12 mps 745 mmHg 78%
    02:00 +3°C° 0.3 mm 11 mps 745 mmHg 78%
    03:00 +3°C° 0.3 mm 11 mps 744 mmHg 78%
    04:00 +5°C° 0.2 mm 10 mps 744 mmHg 80%
    05:00 +5°C° 0.2 mm 9 mps 743 mmHg 82%
    06:00 +5°C° 0.2 mm 8 mps 743 mmHg 84%
    07:00 +5°C° 0.2 mm 8 mps 743 mmHg 83%
    08:00 +5°C° 0.2 mm 7 mps 743 mmHg 81%
    09:00 +6°C° 0.2 mm 7 mps 743 mmHg 80%
    10:00 +6°C° 0.1 mm 8 mps 743 mmHg 76%
    11:00 +6°C° 0.1 mm 9 mps 744 mmHg 72%
    12:00 +6°C° 0.1 mm 10 mps 744 mmHg 68%
    13:00 +6°C° 0.1 mm 11 mps 745 mmHg 68%
    14:00 +6°C° 0.1 mm 11 mps 745 mmHg 68%
    15:00 +6°C° 0.1 mm 11 mps 745 mmHg 67%
    16:00 +6°C° 0.1 mm 10 mps 745 mmHg 71%
    17:00 +5°C° 0.1 mm 9 mps 746 mmHg 74%
    18:00 +5°C° 0.1 mm 8 mps 746 mmHg 77%
    19:00 +5°C° 0 mm 7 mps 746 mmHg 80%
    20:00 +4°C° 0 mm 6 mps 745 mmHg 83%
    21:00 +5°C° 0 mm 5 mps 745 mmHg 86%
    22:00 +5°C° 0.1 mm 6 mps 745 mmHg 85%
    23:00 +5°C° 0.1 mm 7 mps 744 mmHg 85%
    Show more